[[{"header":{"parameterUnit":"m.s-1","parameterCategory":1,"la1":30.2991,"la2":30.254,"lo1":-89.0895,"lo2":-89.0444,"dy":0.0017,"dx":0.0017,"nx":28,"ny":28,"refTime":"2025-09-03T09:00:00:Z","depth":0,"parameterNumber":2,"parameterNumberName":"U-component_of_WINDS"},"data":[0,0,0,0,0,0,0,0,0,0,0,0,0,0,0,0,0,0,0,0,0,0,0,0,0,0,0,0,0,0,0,0,0,0,0,0,0,0,0,0,0,0,0,0,0,0,0,0,0,0,0,0,0,0,0,0,0,0,2.4008,2.4008,0,2.4039,2.4039,2.4039,2.4002,2.4,2.3999,2.3998,2.4029,2.4031,2.4033,0,0,0,0,0,0,0,0,0,0,0,0,0,2.3915,2.3917,2.4008,2.4008,2.4009,2.4039,2.4039,2.4039,2.4002,2.4,2.3999,2.3997,2.4028,2.4031,2.4033,0,0,0,0,0,0,0,0,0,0,0,0,0,2.3951,2.3917,2.4008,2.3994,2.3993,2.4039,2.4039,2.404,2.4002,2.4,2.3998,2.3996,2.4027,2.403,2.4033,2.4095,0,0,2.4043,2.4045,0,0,0,0,0,0,0,0,2.3949,2.3955,2.3995,2.3995,2.3994,2.4014,2.4018,2.4058,2.4003,2.3999,2.3998,2.3995,2.4026,2.4029,2.4039,2.4096,2.4098,2.4043,2.4045,2.4047,2.4048,0,0,0,0,0,0,0,2.3947,2.3953,2.402,2.3996,2.3995,2.3985,2.3988,2.4025,2.4023,2.3999,2.3996,2.4,2.4025,2.4036,2.404,2.4098,2.4043,2.4046,2.4048,2.4049,2.4203,2.4205,0,0,0,0,0,0,2.3946,2.3952,2.4019,2.4021,2.3966,2.3988,2.3992,2.401,2.4023,2.4023,2.4002,2.3998,2.4032,2.4036,2.4041,2.411,2.4047,2.405,2.4052,2.4201,2.4203,2.4206,0,0,0,0,0,0,2.3944,2.3953,2.4018,2.3986,2.3993,2.3992,2.4013,2.4011,2.4023,2.4025,2.4025,2.4014,2.403,2.4036,2.4081,2.4111,2.4051,2.4054,2.4198,2.4202,2.4205,2.4251,0,0,0,0,0,0,2.3942,2.3952,2.3976,2.3986,2.3995,2.4058,2.4015,2.4014,2.4028,2.4024,2.4036,2.4037,2.4029,2.4076,2.4084,2.4114,2.4057,2.4195,2.42,2.4204,2.4247,2.4256,2.4263,0,0,0,0,0,2.3939,2.3989,2.3978,2.3986,2.4025,2.406,2.4065,2.4055,2.4031,2.4054,2.4055,2.4036,2.4107,2.4081,2.4089,2.4121,2.4193,2.4198,2.4203,2.4244,2.4254,2.4263,0,0,0,0,0,0,2.3984,2.399,2.3978,2.4033,2.4046,2.4054,2.4083,2.4068,2.4088,2.4083,2.407,2.4073,2.412,2.4126,2.4097,2.4179,2.4146,2.4153,2.4174,2.4184,2.4192,2.4188,2.4059,0,0,0,0,0,2.4,2.4028,2.4033,2.4081,2.4088,2.4085,2.41,2.4091,2.4104,2.4109,2.4114,2.4127,2.4152,2.4169,2.4192,2.4248,2.4249,2.4274,2.4282,2.4289,2.4294,2.4321,2.4331,2.4222,2.4222,2.4222,0,0,2.4034,2.4041,2.406,2.409,2.4099,2.4127,2.409,2.4122,2.4142,2.4114,2.4156,2.416,2.4173,2.4223,2.4245,2.4229,2.4324,2.4295,2.43,2.4302,2.4327,2.4337,2.4346,2.4225,2.4224,2.4224,0,0,2.4109,2.4119,2.4158,2.4168,2.4182,2.4179,2.4188,2.4198,2.4198,2.424,2.4218,2.4242,2.4286,2.4296,2.4306,2.4382,2.4364,2.4391,2.4432,2.4458,2.4467,2.4474,2.4498,2.4507,2.4396,2.4396,2.4397,0,2.415,2.4192,2.4181,2.4214,2.4226,2.4201,2.424,2.425,2.4271,2.4279,2.4261,2.4313,2.4321,2.437,2.4389,2.4399,2.4408,2.4388,2.4466,2.4474,2.4481,2.4503,2.4513,2.4399,2.4399,2.4399,2.4398,0,2.4239,2.4269,2.4299,2.4318,2.4334,2.437,2.4363,2.438,2.437,2.4368,2.4409,2.4417,2.444,2.4452,2.4443,2.4499,2.4488,2.4469,2.4434,2.4494,2.4515,2.4524,2.4403,2.4402,2.4402,2.4401,0,0,2.4344,2.4355,2.4366,2.4372,2.4385,2.4407,2.444,2.4462,2.4476,2.4491,2.4517,2.4553,2.4534,2.4546,2.4538,2.4561,2.4616,2.4538,2.4538,2.4549,2.4676,2.4689,2.4699,2.4605,2.4607,2.4608,2.4673,0,2.4417,2.4475,2.4464,2.452,2.4545,2.452,2.4549,2.4559,2.4558,2.4579,2.4578,2.4602,2.4577,2.4583,2.4606,2.4605,2.4641,2.4601,2.4627,2.4628,2.4622,2.471,2.4725,2.4786,2.4682,2.4683,2.4685,0,2.451,2.4526,2.4584,2.4589,2.4599,2.4625,2.4642,2.4663,2.4673,2.467,2.4682,2.4668,2.47,2.4667,2.4709,2.4682,2.4692,2.4693,2.4695,2.4696,2.4658,2.471,2.4806,2.4814,2.4698,2.4697,2.4696,0,2.4577,2.4613,2.4651,2.4658,2.4666,2.4684,2.4688,2.4696,2.4709,2.4724,2.4731,2.475,2.476,2.4775,2.4766,2.4743,2.4808,2.4775,2.4805,2.4805,2.4818,2.4817,2.4914,2.483,2.483,2.483,2.4829,0,2.4658,2.4693,2.4681,2.4704,2.4742,2.4729,2.4767,2.4768,2.4775,2.4797,2.4778,2.4799,2.4787,2.4807,2.4801,2.4834,2.484,2.4837,2.4835,2.4837,2.4837,2.4842,2.4837,2.4832,2.4831,2.4831,2.4831,0,2.4738,2.4731,2.477,2.4774,2.4775,2.4803,2.4805,2.4826,2.4823,2.485,2.4856,2.4852,2.4873,2.4866,2.4891,2.4886,2.4928,2.4922,2.4924,2.4922,2.495,2.4947,2.5052,2.5064,2.4975,2.4976,2.4976,0,2.4789,2.4815,2.482,2.4832,2.4837,2.4859,2.4871,2.4859,2.4872,2.4883,2.4902,2.4922,2.4937,2.4973,2.4972,2.4989,2.4981,2.5017,2.4984,2.4985,2.4978,2.4975,2.4976,2.5023,2.5024,2.5025,2.5025,0,2.4878,2.4873,2.489,2.4906,2.492,2.4932,2.4943,2.4955,2.4943,2.4959,2.498,2.4992,2.5015,2.5034,2.5049,2.5053,2.5036,2.5036,2.5043,2.5045,2.5044,2.5041,2.4939,2.5033,2.5032,2.5032,2.5031,2.5031,2.4943,2.4963,2.4969,2.4988,2.4994,2.5004,2.5022,2.5021,2.5038,2.5055,2.5048,2.5072,2.5078,2.5097,2.5103,2.512,2.5107,2.5118,2.512,2.5123,2.5125,2.5043,2.5124,2.5124,2.5123,2.5123,2.5123,0,2.5028,2.503,2.5048,2.5062,2.5076,2.506,2.507,2.5083,2.5104,2.5111,2.5126,2.5149,2.5167,2.5166,2.5182,2.5197,2.5189,2.5201,2.5198,2.5199,2.5138,2.5128,2.5206,2.5206,2.5206,2.5206,2.5206,2.5206,2.5075,2.5107,2.5102,2.5137,2.5138,2.5161,2.5167,2.5175,2.518,2.5207,2.5221,2.522,2.5224,2.524,2.5255,2.5254,2.5259,2.5273,2.527,2.5212,2.5204,2.5196,2.5186,2.5275,2.5276,2.5328,2.5329,2.5329]},{"header":{"parameterUnit":"m.s-1","parameterCategory":1,"la1":30.2991,"la2":30.254,"lo1":-89.0895,"lo2":-89.0444,"dy":0.0017,"dx":0.0017,"nx":28,"ny":28,"refTime":"2025-09-03T09:00:00:Z","depth":0,"parameterNumber":3,"parameterNumberName":"V-component_of_WINDS"},"data":[0,0,0,0,0,0,0,0,0,0,0,0,0,0,0,0,0,0,0,0,0,0,0,0,0,0,0,0,0,0,0,0,0,0,0,0,0,0,0,0,0,0,0,0,0,0,0,0,0,0,0,0,0,0,0,0,0,0,3.2704,3.2706,0,3.287,3.2872,3.2874,3.2881,3.2879,3.2877,3.2875,3.3038,3.3044,3.3051,0,0,0,0,0,0,0,0,0,0,0,0,0,3.2384,3.239,3.2704,3.2706,3.2708,3.287,3.2872,3.2875,3.2881,3.2879,3.2876,3.2874,3.3036,3.3044,3.3051,0,0,0,0,0,0,0,0,0,0,0,0,0,3.2534,3.2392,3.2704,3.2731,3.2735,3.287,3.2873,3.2875,3.2882,3.2879,3.2876,3.2873,3.3034,3.3043,3.3052,3.3168,0,0,3.3081,3.3085,0,0,0,0,0,0,0,0,3.2525,3.2545,3.2725,3.273,3.2734,3.2852,3.2819,3.2973,3.2882,3.2826,3.2875,3.2872,3.2978,3.2992,3.3029,3.3176,3.3183,3.3081,3.3087,3.3091,3.3094,0,0,0,0,0,0,0,3.2515,3.2538,3.277,3.2728,3.2733,3.2732,3.275,3.2849,3.2916,3.2831,3.2832,3.2851,3.298,3.3021,3.3033,3.3185,3.3081,3.3089,3.3095,3.3099,3.3432,3.3435,0,0,0,0,0,0,3.25,3.253,3.2764,3.2775,3.2621,3.2741,3.2761,3.2817,3.2915,3.2928,3.2854,3.2851,3.3006,3.3023,3.3039,3.318,3.3091,3.31,3.3105,3.3429,3.3433,3.3436,0,0,0,0,0,0,3.2493,3.2521,3.2758,3.2653,3.2683,3.2749,3.2812,3.2822,3.2862,3.2933,3.2944,3.2883,3.3004,3.3026,3.3136,3.3186,3.3104,3.3112,3.3425,3.343,3.3434,3.3463,0,0,0,0,0,0,3.2484,3.2519,3.2566,3.2654,3.2688,3.2855,3.2816,3.2827,3.2879,3.2877,3.2964,3.2975,3.3004,3.3122,3.3145,3.3197,3.3119,3.3421,3.3427,3.3433,3.3458,3.3469,3.3477,0,0,0,0,0,3.2473,3.2566,3.2568,3.2596,3.2749,3.2857,3.2877,3.291,3.2883,3.2929,3.2974,3.2972,3.3176,3.3133,3.3159,3.3215,3.3418,3.3425,3.3432,3.3454,3.3466,3.3477,0,0,0,0,0,0,3.248,3.2578,3.2581,3.2707,3.2774,3.2858,3.2918,3.2923,3.2998,3.2993,3.3029,3.3048,3.3156,3.3196,3.3147,3.333,3.3293,3.3306,3.3301,3.3313,3.3323,3.3311,3.3127,0,0,0,0,0,3.2497,3.258,3.266,3.2762,3.2796,3.2851,3.29,3.292,3.299,3.3018,3.3071,3.3137,3.3215,3.3267,3.3343,3.3464,3.3481,3.3514,3.3524,3.3531,3.3542,3.3606,3.3621,3.3461,3.346,3.346,0,0,3.2532,3.2595,3.2645,3.2765,3.282,3.2902,3.2875,3.2963,3.3024,3.303,3.3138,3.3178,3.3254,3.3369,3.3422,3.3406,3.359,3.3541,3.3546,3.3553,3.3615,3.363,3.3643,3.3466,3.3465,3.3464,0,0,3.2637,3.2694,3.2785,3.284,3.2923,3.2959,3.2981,3.3064,3.3092,3.3201,3.3207,3.3277,3.3413,3.3466,3.3511,3.3633,3.3633,3.3657,3.3707,3.3769,3.3782,3.3793,3.3835,3.3849,3.3667,3.3667,3.3667,0,3.2668,3.2795,3.2831,3.2919,3.297,3.2982,3.3072,3.3123,3.3226,3.326,3.324,3.3409,3.3461,3.3588,3.3617,3.3654,3.3677,3.3647,3.3777,3.3789,3.38,3.384,3.3856,3.367,3.3669,3.3669,3.3669,0,3.2829,3.2916,3.2979,3.308,3.3138,3.3227,3.3274,3.3328,3.3342,3.3378,3.3487,3.3549,3.3638,3.3669,3.3683,3.3797,3.3784,3.377,3.3734,3.3817,3.3855,3.3871,3.3673,3.3672,3.3671,3.3671,0,0,3.2945,3.3063,3.3086,3.3131,3.3222,3.3289,3.3376,3.3465,3.351,3.3579,3.3652,3.3765,3.3753,3.3804,3.3823,3.3878,3.3968,3.3857,3.386,3.3874,3.4094,3.4103,3.412,3.3968,3.3971,3.3974,3.4087,0,3.3059,3.3218,3.3252,3.3388,3.3467,3.3478,3.3554,3.3616,3.3652,3.3722,3.376,3.384,3.3819,3.3849,3.3903,3.3946,3.4012,3.3938,3.4033,3.4036,3.4014,3.4141,3.4151,3.4255,3.4102,3.4105,3.4107,0,3.3214,3.3289,3.3433,3.3513,3.3547,3.3615,3.3697,3.3765,3.3835,3.3857,3.3912,3.3926,3.4014,3.3973,3.4093,3.4042,3.4082,3.4108,3.4113,3.4123,3.4076,3.4152,3.4289,3.4304,3.4131,3.4129,3.4127,0,3.3281,3.3418,3.3522,3.3561,3.3656,3.3703,3.3744,3.3811,3.3861,3.3932,3.3964,3.4044,3.4087,3.4146,3.4179,3.4147,3.4296,3.4258,3.4314,3.4313,3.4345,3.4342,3.4489,3.4372,3.4372,3.4372,3.4372,0,3.3405,3.3493,3.3554,3.3618,3.3715,3.3751,3.3845,3.3886,3.3945,3.4014,3.4027,3.4091,3.4132,3.42,3.4226,3.432,3.434,3.4358,3.4364,3.4357,3.4354,3.4383,3.4376,3.4376,3.4375,3.4374,3.4374,0,3.3498,3.3543,3.3656,3.3737,3.3759,3.3827,3.3895,3.3955,3.399,3.4078,3.41,3.4155,3.4236,3.4275,3.4376,3.4393,3.4499,3.4501,3.4477,3.4479,3.4532,3.4525,3.4702,3.4725,3.4594,3.4595,3.4596,0,3.3573,3.3641,3.3729,3.3778,3.3821,3.3898,3.395,3.3986,3.4039,3.4122,3.4171,3.4254,3.4322,3.4451,3.4498,3.4574,3.4576,3.4633,3.4588,3.4578,3.4575,3.4571,3.4576,3.4641,3.4642,3.4643,3.4644,0,3.3702,3.372,3.3795,3.3878,3.3939,3.4005,3.4069,3.4107,3.4153,3.4211,3.4296,3.4349,3.4451,3.4532,3.4611,3.465,3.4654,3.4658,3.4674,3.4667,3.465,3.4658,3.4497,3.4653,3.4652,3.4652,3.4651,3.4651,3.3788,3.3848,3.3919,3.4001,3.4053,3.4113,3.4173,3.4216,3.4288,3.4377,3.4393,3.4482,3.4546,3.4653,3.4695,3.4763,3.4749,3.4774,3.478,3.4785,3.4787,3.464,3.4777,3.4777,3.4777,3.4777,3.4776,0,3.3916,3.3962,3.4037,3.4127,3.4191,3.4191,3.4262,3.4314,3.4393,3.4454,3.4521,3.4617,3.4694,3.4747,3.4825,3.4869,3.4872,3.4888,3.4884,3.4893,3.4796,3.4773,3.4884,3.4884,3.4884,3.4883,3.4883,3.4883,3.399,3.4091,3.4117,3.4243,3.4288,3.4377,3.4417,3.447,3.4519,3.4626,3.4692,3.4726,3.4783,3.4864,3.4934,3.4947,3.4975,3.4991,3.5003,3.4911,3.49,3.4889,3.4868,3.4997,3.4997,3.5094,3.5095,3.5096]}]]